{"data":{"norad_id":47268,"intl_designator":"2020-100L","name":"ONEWEB-0122","alt_names":[],"object_type":"PAYLOAD","status":"ACTIVE","operator":null,"country":"UK","launch_date":"2020-12-18","launch_site_code":"VOSTO","launch_vehicle":null,"mission":null,"orbit_class":"UNKNOWN","rcs_meters":null,"size_class":null,"mass_kg":null,"dimensions":null,"purposes":["comms"],"wikipedia_slug":null,"has_3d_model":false,"image_url":null,"decayed_at":null,"tle_current":{"epoch":"2026-09-19T12:23:39.399072Z","epoch_age_seconds":99738,"freshness":"FRESH","line1":"1 47268U 20100L   26262.51642823 -.00000105  00000+0 -32794-3 0  9994","line2":"2 47268  87.8979 331.9378 0001766  95.5429 264.5901 13.12441139276927","mean_motion":13.12441139,"eccentricity":0.0001766,"inclination_deg":87.8979,"raan_deg":331.9378,"arg_perigee_deg":95.5429,"mean_anomaly_deg":264.5901,"bstar":-0.00032794,"rev_number":27692,"period_min":109.71920623406,"perigee_km":1212.3897439297,"apogee_km":1215.0711915193,"semimajor_km":7591.8674677245,"source":"CELESTRAK","updated_at":"2026-09-20T09:00:44.577868Z"}}}